Location: Hastringsfeld
(50.9620°N, 10.4787°E)
Time: 03:11:17
(UTC+00:00)

ATLAS 3B R/B - Pass Details

Date: 24 April 2024
Orbit: 943 x 1251 km, 63.8° (Epoch: 17 May)

Event Time Altitude Azimuth Distance (km) Brightness Sun altitude
Rises 22:59:04 0° 303° (WNW) 4,094 6.3 -25.7°
Reaches altitude 10° 23:02:06 10° 312° (NW) 3,165 5.7 -25.7°
Maximum altitude 23:09:04 36° 17° (NNE) 1,879 4.4 -25.7°
Drops below altitude 10° 23:16:11 10° 82° (E) 3,231 5.3 -25.8°
Sets 23:19:18 0° 91° (E) 4,190 5.8 -25.8°
